Theta_e
348 348 345 337 337 339 340 340 340 341 341 340 339 339 337 338 337 338 338 339 339 338 337 336 334 332 332 333 333 338 338 338
347 347 347 338 336 337 337 335 335 336 338 339 339 339 338 338 338 338 338 338 338 337 337 335 334 332 332 332 333 336 337 337
347 347 346 342 336 336 336 336 336 336 338 340 340 339 339 339 338 338 338 339 338 338 335 334 332 332 332 331 332 333 337 337
349 348 346 345 337 335 335 335 337 338 340 340 340 339 339 338 337 338 338 339 339 337 333 333 332 332 331 330 330 333 337 335
311 341 347 346 344 340 339 335 335 338 340 340 339 340 339 338 337 338 340 339 339 338 333 332 332 333 331 329 329 335 335 336
310 310 324 342 343 344 343 343 335 335 339 340 340 340 341 340 340 339 340 341 339 338 334 332 331 336 337 335 333 335 335 335
312 312 311 314 333 340 345 345 343 336 335 338 338 338 340 343 342 342 340 340 339 338 336 333 331 334 337 337 336 335 335 334
310 313 315 318 322 337 341 343 344 342 339 337 340 340 339 343 342 342 341 341 340 338 339 336 333 335 336 337 336 336 335 335
307 309 311 314 317 318 329 342 342 344 342 341 341 341 341 343 342 342 342 342 339 339 339 338 338 336 338 335 334 336 335 335
303 305 308 310 311 314 317 327 340 340 344 343 342 342 342 342 343 342 343 342 341 340 339 339 338 338 336 334 333 334 331 335
301 302 303 306 308 311 314 317 322 339 339 343 344 343 342 341 343 342 343 342 341 340 339 338 337 337 337 337 333 332 332 334
298 299 301 302 304 307 310 314 318 329 339 340 341 344 343 341 343 344 342 342 341 341 340 339 337 336 336 336 335 333 333 334
296 297 298 299 301 304 307 309 315 319 328 338 339 340 343 342 342 344 343 341 341 342 340 339 339 338 337 336 336 334 333 333
294 294 296 297 300 302 305 308 312 315 318 324 337 338 341 343 342 344 343 342 341 342 342 341 340 339 336 334 331 334 335 335
292 293 295 297 299 302 305 307 311 314 317 323 336 338 341 340 340 342 343 343 342 341 340 340 339 338 336 333 329 329 329 334
291 292 293 296 300 301 303 305 309 311 315 319 322 336 339 342 340 340 343 341 340 341 340 337 336 335 335 335 332 332 326 328
290 291 292 294 299 301 302 305 310 311 315 321 327 328 338 340 340 339 341 339 337 336 337 336 335 334 333 334 335 334 334 331
290 291 291 293 296 300 302 305 308 313 317 324 331 333 336 337 340 339 340 338 336 336 335 334 334 333 333 332 333 333 332 331
290 290 291 291 295 299 301 304 306 315 320 325 324 321 323 322 330 334 336 338 337 335 334 336 335 334 333 332 332 331 331 331
289 289 290 290 293 297 300 301 303 308 310 314 314 315 318 320 321 321 327 331 337 337 335 337 336 335 334 333 332 331 331 331
Wind_Speed
1 2 7 16 17 17 17 17 18 19 19 19 19 18 18 17 16 15 14 13 11 9 9 8 8 7 7 8 10 10 13 8
4 6 6 19 20 18 17 17 17 18 20 20 20 19 19 18 17 16 15 14 12 10 10 10 9 9 9 9 10 11 7 12
9 9 9 13 20 19 19 18 18 18 20 21 21 21 20 19 18 17 16 15 13 11 11 12 11 10 10 9 10 11 8 11
13 12 13 11 20 20 21 20 19 20 21 23 22 22 22 22 20 19 17 16 15 13 12 12 12 11 10 10 10 11 7 12
24 18 16 16 17 20 22 24 23 23 24 25 25 24 22 22 21 22 19 18 17 16 15 15 14 12 10 9 10 7 4 14
31 29 21 20 21 24 24 26 29 28 27 27 28 27 25 23 24 25 24 23 21 19 17 16 15 15 10 9 9 6 7 13
42 40 35 26 28 29 26 34 33 34 34 31 30 30 30 28 27 27 26 24 24 21 19 18 18 18 15 12 10 8 11 14
42 41 40 37 29 28 32 32 35 36 36 35 33 31 32 30 30 29 27 25 25 24 22 19 19 19 17 16 11 11 13 11
38 43 41 40 38 35 24 35 33 35 37 35 37 36 36 33 34 31 29 26 25 26 24 21 21 20 21 16 15 12 9 11
40 40 39 37 38 37 34 24 32 32 35 40 39 41 38 36 34 36 32 28 28 28 26 26 23 23 23 19 19 17 14 12
40 41 39 37 35 37 36 34 30 35 39 39 40 42 42 40 38 37 35 32 31 32 30 29 25 25 22 20 20 19 19 17
34 38 38 37 33 33 37 34 33 24 38 36 38 39 43 42 35 35 36 36 33 33 32 30 29 25 22 22 21 22 24 22
35 37 39 37 33 30 29 33 34 37 25 36 35 42 43 45 42 32 37 40 37 33 30 30 27 26 20 18 24 24 25 25
34 36 35 37 30 29 25 28 33 34 36 35 36 52 48 51 45 36 38 40 37 33 33 26 24 26 14 6 2 7 22 27
35 34 33 35 33 29 25 24 29 31 28 28 32 44 51 48 48 42 39 38 38 35 36 31 25 27 25 8 2 5 4 24
32 32 33 31 30 26 26 25 27 31 33 33 37 38 41 47 50 44 43 43 37 36 35 34 27 25 27 30 15 4 4 2
31 32 33 35 29 26 26 27 24 32 32 33 32 35 43 46 51 44 41 43 39 38 32 34 33 24 26 22 27 22 17 4
33 33 33 33 33 28 27 27 27 29 32 30 19 26 37 44 46 43 36 38 40 41 35 35 34 30 29 28 24 18 20 11
31 32 33 35 34 28 26 27 27 18 14 8 11 6 3 12 2 27 24 35 35 38 37 34 38 35 33 33 30 31 26 22
32 33 34 35 33 33 27 23 20 14 9 16 9 8 15 19 20 16 10 3 20 35 38 34 35 37 34 31 28 32 28 27
Wind_Direction
312 25 249 215 208 208 206 204 204 202 202 200 199 196 194 193 192 189 186 186 189 191 194 194 193 179 169 157 154 141 121 150
250 249 296 222 214 214 216 213 211 209 206 203 201 198 197 197 196 195 191 192 194 196 200 202 201 186 173 168 162 160 136 166
259 240 235 221 220 219 220 218 217 216 209 205 200 198 199 200 202 200 199 199 197 203 202 200 198 195 179 173 170 159 140 158
250 256 229 211 219 228 228 224 220 216 209 205 204 203 204 204 203 203 205 206 204 202 202 203 197 199 190 181 173 172 155 187
5 297 239 224 207 227 231 229 224 218 215 209 206 204 208 210 205 202 202 208 206 203 201 201 201 198 197 200 179 189 192 199
336 334 324 267 253 216 223 225 225 223 219 217 212 206 206 207 205 203 203 207 209 208 205 204 202 204 209 213 201 211 182 182
358 353 344 329 282 259 229 225 223 223 220 219 217 212 205 209 207 208 208 209 213 211 211 207 205 200 212 227 211 207 192 209
348 354 353 352 350 297 254 235 228 222 220 218 218 217 211 211 208 209 211 212 216 217 214 207 204 200 211 206 213 219 202 192
349 340 339 350 343 329 313 250 237 224 217 214 215 216 213 212 207 209 213 211 208 213 218 218 214 208 211 218 223 222 218 211
339 336 335 339 338 340 335 305 263 233 220 217 213 214 214 211 211 212 211 206 207 209 213 215 211 209 211 217 223 222 222 228
340 332 332 334 334 327 324 329 318 254 233 224 216 213 213 211 214 216 207 207 208 210 213 218 210 216 218 220 219 226 231 223
337 334 331 331 330 325 318 318 318 309 250 232 224 212 212 212 216 217 211 207 209 212 214 217 218 218 220 221 222 227 233 235
333 333 328 329 327 326 322 316 314 311 307 250 240 232 215 212 210 209 211 210 206 205 204 209 210 209 211 226 235 233 231 228
329 327 323 321 317 313 308 303 299 298 300 296 235 239 224 211 209 209 208 205 207 200 201 198 202 197 188 148 187 241 234 229
326 322 320 317 317 313 309 308 299 297 293 293 265 236 219 212 214 211 208 200 201 206 210 200 197 198 203 173 159 216 201 226
324 324 321 318 312 313 307 299 287 288 289 289 278 254 225 211 210 206 209 209 200 201 207 211 208 209 213 215 217 173 191 255
331 332 329 329 319 315 310 293 283 283 281 283 276 280 236 218 207 200 204 210 209 206 208 212 210 205 207 212 221 237 246 234
339 338 334 337 330 323 320 306 299 278 273 266 270 266 245 231 200 193 197 199 203 204 205 211 209 209 210 218 219 216 228 220
344 345 343 342 335 332 331 324 313 279 260 182 95 12 14 315 205 165 189 206 209 205 205 209 211 208 209 217 219 224 221 226
347 352 349 349 348 341 347 342 337 308 87 107 106 85 65 45 348 66 100 147 213 220 211 209 206 210 216 219 227 230 229 227